Total_Precipitation_Accumulation
0.29 0.18 0.07 0.01 0.01 0.00 0.00 0.00 0.00 0.00 0.00 0.00 0.00 0.00 0.00 0.00 0.00 0.00 0.00 0.00 0.00 0.00 0.00 0.00 0.00 0.00 0.00 0.00 0.00 0.00 0.00 0.00 0.00 0.00 0.00 0.00 0.00 0.00
0.25 0.26 0.20 0.13 0.08 0.05 0.03 0.01 0.00 0.00 0.00 0.00 0.00 0.00 0.00 0.00 0.00 0.00 0.00 0.00 0.00 0.00 0.00 0.00 0.00 0.00 0.00 0.00 0.00 0.00 0.00 0.00 0.01 0.01 0.01 0.00 0.00 0.00
0.14 0.17 0.16 0.11 0.11 0.09 0.08 0.08 0.02 0.00 0.00 0.00 0.00 0.00 0.00 0.00 0.00 0.00 0.00 0.00 0.00 0.00 0.00 0.00 0.00 0.00 0.00 0.00 0.00 0.00 0.00 0.00 0.00 0.01 0.01 0.01 0.00 0.00
0.10 0.11 0.10 0.11 0.14 0.11 0.10 0.08 0.03 0.00 0.00 0.00 0.00 0.00 0.00 0.00 0.00 0.00 0.00 0.00 0.00 0.00 0.00 0.00 0.00 0.00 0.00 0.00 0.00 0.00 0.00 0.00 0.00 0.00 0.00 0.01 0.02 0.02
0.06 0.10 0.10 0.16 0.19 0.16 0.14 0.10 0.05 0.01 0.01 0.02 0.01 0.00 0.00 0.00 0.00 0.00 0.00 0.00 0.00 0.00 0.00 0.00 0.00 0.00 0.00 0.00 0.00 0.00 0.00 0.00 0.00 0.01 0.02 0.01 0.02 0.02
0.10 0.11 0.14 0.15 0.14 0.15 0.16 0.15 0.10 0.05 0.02 0.03 0.02 0.02 0.01 0.01 0.01 0.00 0.01 0.01 0.01 0.01 0.00 0.00 0.00 0.00 0.00 0.00 0.00 0.00 0.00 0.00 0.00 0.00 0.01 0.03 0.02 0.01
0.15 0.15 0.14 0.14 0.13 0.14 0.15 0.14 0.14 0.12 0.05 0.04 0.03 0.02 0.02 0.02 0.03 0.04 0.03 0.02 0.01 0.01 0.00 0.00 0.00 0.00 0.00 0.00 0.00 0.00 0.00 0.00 0.00 0.00 0.00 0.01 0.02 0.02
0.41 0.30 0.28 0.31 0.31 0.29 0.23 0.19 0.21 0.20 0.12 0.08 0.05 0.02 0.03 0.04 0.06 0.06 0.07 0.04 0.02 0.00 0.00 0.01 0.00 0.00 0.00 0.00 0.00 0.00 0.00 0.00 0.00 0.00 0.00 0.01 0.02 0.04
0.53 0.58 0.57 0.49 0.55 0.62 0.64 0.60 0.50 0.36 0.27 0.19 0.14 0.05 0.04 0.06 0.12 0.14 0.10 0.07 0.06 0.05 0.05 0.05 0.03 0.01 0.00 0.00 0.00 0.00 0.00 0.00 0.00 0.00 0.00 0.00 0.02 0.04
0.39 0.38 0.40 0.40 0.35 0.36 0.36 0.35 0.30 0.23 0.20 0.22 0.19 0.12 0.09 0.10 0.12 0.13 0.16 0.19 0.17 0.10 0.05 0.02 0.00 0.00 0.00 0.00 0.00 0.00 0.00 0.00 0.00 0.00 0.00 0.00 0.01 0.02
0.32 0.30 0.27 0.24 0.22 0.20 0.17 0.12 0.08 0.06 0.06 0.08 0.16 0.17 0.17 0.18 0.19 0.19 0.20 0.16 0.16 0.10 0.05 0.04 0.02 0.01 0.01 0.00 0.00 0.00 0.00 0.00 0.00 0.00 0.00 0.00 0.00 0.00
0.07 0.06 0.09 0.06 0.09 0.07 0.07 0.06 0.05 0.03 0.02 0.05 0.09 0.14 0.19 0.18 0.18 0.12 0.10 0.11 0.10 0.10 0.07 0.05 0.04 0.03 0.02 0.00 0.00 0.00 0.00 0.00 0.00 0.00 0.00 0.00 0.00 0.00
0.04 0.04 0.06 0.15 0.08 0.12 0.14 0.09 0.10 0.10 0.15 0.23 0.26 0.27 0.25 0.22 0.19 0.15 0.11 0.09 0.09 0.08 0.06 0.08 0.06 0.03 0.01 0.00 0.00 0.00 0.00 0.00 0.00 0.00 0.00 0.00 0.00 0.00
0.01 0.01 0.03 0.12 0.05 0.06 0.07 0.08 0.12 0.13 0.09 0.13 0.20 0.22 0.22 0.21 0.20 0.24 0.28 0.27 0.22 0.16 0.11 0.08 0.05 0.03 0.01 0.00 0.00 0.00 0.00 0.00 0.00 0.00 0.00 0.00 0.00 0.00
0.00 0.00 0.00 0.02 0.01 0.03 0.06 0.09 0.09 0.08 0.11 0.22 0.21 0.16 0.16 0.19 0.24 0.28 0.28 0.22 0.18 0.15 0.13 0.08 0.06 0.04 0.02 0.00 0.00 0.00 0.00 0.00 0.00 0.00 0.00 0.00 0.00 0.00
0.00 0.00 0.00 0.00 0.00 0.01 0.02 0.06 0.04 0.05 0.15 0.25 0.32 0.35 0.37 0.39 0.36 0.31 0.27 0.21 0.18 0.16 0.12 0.09 0.07 0.06 0.05 0.03 0.01 0.00 0.00 0.00 0.00 0.00 0.00 0.00 0.00 0.00
0.00 0.00 0.00 0.00 0.00 0.00 0.01 0.02 0.05 0.09 0.16 0.20 0.25 0.27 0.32 0.41 0.42 0.39 0.36 0.31 0.26 0.19 0.16 0.13 0.10 0.07 0.04 0.02 0.01 0.00 0.00 0.00 0.00 0.00 0.00 0.00 0.00 0.00
0.00 0.00 0.00 0.00 0.00 0.00 0.02 0.06 0.08 0.09 0.08 0.13 0.20 0.26 0.33 0.37 0.36 0.36 0.40 0.39 0.35 0.28 0.22 0.18 0.13 0.08 0.04 0.02 0.01 0.00 0.00 0.00 0.00 0.00 0.00 0.00 0.00 0.00
0.00 0.00 0.00 0.00 0.00 0.01 0.01 0.01 0.05 0.09 0.16 0.24 0.26 0.22 0.23 0.31 0.42 0.46 0.48 0.48 0.43 0.35 0.28 0.21 0.16 0.10 0.06 0.03 0.01 0.00 0.00 0.00 0.00 0.00 0.00 0.00 0.00 0.00
0.00 0.00 0.00 0.00 0.01 0.01 0.01 0.01 0.02 0.05 0.07 0.12 0.24 0.34 0.41 0.45 0.45 0.39 0.41 0.44 0.49 0.47 0.40 0.28 0.18 0.10 0.05 0.01 0.00 0.00 0.00 0.00 0.00 0.00 0.00 0.00 0.00 0.00
0.00 0.00 0.00 0.00 0.00 0.01 0.01 0.01 0.01 0.04 0.08 0.10 0.13 0.20 0.29 0.38 0.46 0.43 0.40 0.42 0.49 0.50 0.42 0.30 0.21 0.14 0.08 0.02 0.00 0.00 0.00 0.00 0.00 0.00 0.00 0.00 0.00 0.00
0.00 0.00 0.00 0.00 0.00 0.01 0.01 0.01 0.02 0.04 0.06 0.08 0.11 0.15 0.19 0.26 0.34 0.38 0.43 0.49 0.45 0.37 0.35 0.34 0.35 0.24 0.09 0.03 0.01 0.00 0.00 0.00 0.00 0.00 0.00 0.00 0.00 0.00
0.01 0.01 0.01 0.01 0.00 0.01 0.01 0.03 0.04 0.04 0.04 0.08 0.15 0.18 0.20 0.23 0.23 0.30 0.39 0.45 0.46 0.50 0.48 0.41 0.35 0.21 0.13 0.10 0.03 0.00 0.00 0.00 0.00 0.00 0.00 0.00 0.00 0.00